SCP
0 0 0 0 0 0 -0 -0 -0 -0 -0 -0 -0 -0 -0 -0 -0 -0 -0 -0 -0 -0 -0 -0 -0 -0 -0 -0 -0 -0 -0 -0 -0 -0 -0 -0 -0 -0 -0 -0 -0 -0 -0
0 0 0 0 0 0 0 -0 -0 -0 -0 -0 -0 -0 -0 -0 -0 -0 -0 -0 -0 0 -0 -0 0 -0 -0 0 -0 -0 -0 -0 -0 -0 -0 -0 -0 -0 -0 0 -0 -0 -0
-0 0 0 0 0 0 0 0 0 -0 -0 -0 -0 -0 -0 -0 -0 -0 -0 -0 0 -0 -0 -0 -0 0 0 0 0 0 -0 -0 -0 -0 -0 -0 0 -0 -0 -0 -0 -0 -0
-0 0 0 0 0 0 0 0 0 -0 -0 -0 -0 -0 -0 -0 -0 -0 -0 0 -0 -0 0 0 0 0 -0 0 -0 0 -0 -0 -0 -0 0 -0 0 -0 -0 -0 -0 -0 -0
0 0 0 0 0 0 0 0 0 0 -0 -0 -0 -0 -0 -0 0 0 0 0 0 -0 0 0 0 0 0 0 0 -0 0 0 0 0 0 0 0 0 0 -0 -0 -0 -0
0 0 0 0 0 0 0 0 0 0 -0 -0 0 0 -0 -0 -0 0 0 0 0 0 0 0 0 0 0 0 -0 -0 -0 0 0 0 -0 0 0 0 0 -0 -0 -0 -0
-0 0 0 0 0 0 0 0 0 0 -0 -0 0 0 -0 -0 0 0 -0 0 0 0 0 0 0 0 0 0 0 -0 -0 -0 0 0 0 0 0 0 0 0 0 -0 -0
-0 -0 0 -0 -0 -0 -0 -0 -0 -0 -0 -0 -0 0 0 0 -0 0 0 -0 -0 0 0 0 0 0 0 0 -0 -0 0 0 0 0 0 0 0 0 0 0 0 -0 0
-0 -0 0 0 0 -0 0 -0 -0 -0 -0 -0 -0 0 -0 -0 -0 0 0 0 0 0 0 0 0 0 0 -0 0 -0 -0 -0 0 0 0 0 0 0 0 0 0 0 0
0 0 0 0 0 0 0 -0 -0 -0 -0 -0 -0 0 -0 -0 0 0 0 0 0 0 0 0 0 0 -0 -0 -0 0 -0 0 0 0 0 0 0 0 0 0 0 0 0
0 0 0 -0 -0 0 0 0 0 -0 -0 -0 -0 0 0 0 0 0 0 0 0 0 0 0 0 0 -0 -0 -0 0 0 0 0 -0 -0 0 0 0 0 0 0 0 0
0 -0 -0 0 0 -0 -0 0 0 0 0 0 -0 0 0 0 0 0 0 0 0 0 0 0 0 -0 -0 0 0 0 0 0 -0 -0 0 0 0 0 0 0 0 0 0
0 0 0 -0 -0 -0 -0 -0 -0 -0 -0 -0 0 0 0 0 0 0 0 0 0 0 0 0 0 0 0 0 0 0 0 0 -0 -0 0 0 0 0 0 0 0 0 0
-0 -0 0 -0 -0 -0 -0 -0 -0 -0 0 0 0 0 0 0 0 0 0 0 0 0 0 0 0 0 -0 -0 0 -0 0 0 -0 -0 -0 0 0 0 0 0 0 0 0
-0 0 0 0 0 -0 -0 -0 -0 -0 0 0 0 0 0 0 0 0 0 0 0 0 0 0 0 0 0 -0 0 0 0 0 -0 -0 -0 0 0 0 0 0 0 0 0
-0 0 0 0 -0 0 -0 0 -0 -0 0 0 0 0 0 0 0 0 0 0 0 0 0 0 0 0 0 0 0 0 0 0 0 0 0 -0 0 0 0 0 0 0 0
-0 -0 -0 -0 -0 -0 -0 -0 -0 0 0 0 0 0 0 0 0 0 0 0 0 0 0 0 0 0 -0 0 0 0 0 0 0 0 0 0 0 0 0 0 0 0 0
-0 -0 -0 -0 -0 -0 0 0 0 -0 0 0 0 0 0 0 0 0 0 1 0 0 0 0 -0 0 0 -0 0 -0 0 -0 0 0 0 0 0 0 0 0 0 0 0
-0 -0 -0 0 0 0 0 -0 -0 0 0 0 0 0 0 0 0 0 0 0 0 0 0 0 0 0 0 0 0 0 0 -0 0 0 0 0 0 0 0 0 0 0 0
-0 -0 -0 -0 -0 0 -0 0 -0 0 0 0 -0 0 0 0 0 0 0 0 0 0 0 0 0 0 -0 0 0 0 0 -0 -0 0 -0 0 0 0 -0 0 0 0 0
-0 -0 -0 -0 0 -0 -0 -0 0 0 0 0 0 0 0 0 0 0 0 0 0 -0 0 -0 0 0 0 0 0 -0 0 0 -0 0 0 0 0 0 0 0 -0 0 0
-0 0 -0 -0 -0 -0 -0 -0 0 0 0 0 0 0 0 0 0 0 0 0 -0 -0 -0 -0 -0 -0 -0 -0 0 -0 -0 -0 0 -0 -0 0 0 0 0 -0 0 0 0
-0 -0 -0 -0 -0 0 -0 0 0 0 0 0 0 0 0 0 0 0 0 0 0 -0 -0 0 0 -0 -0 -0 0 0 0 -0 0 -0 0 -0 0 0 -0 0 -0 -0 0
0 -0 -0 -0 -0 0 -0 -0 0 -0 0 0 0 0 0 0 0 0 0 -0 0 0 0 0 0 -0 0 0 0 0 0 0 0 -0 -0 0 -0 0 -0 0 0 0 0
-0 -0 -0 -0 -0 0 0 -0 -0 0 -0 0 0 0 -0 0 0 0 -0 0 0 0 0 0 0 0 0 0 0 0 0 0 0 0 0 0 0 0 0 0 0 0 -0
0 0 -0 -0 -0 -0 0 0 -0 -0 -0 -0 0 -0 0 0 0 0 0 0 0 0 0 0 0 0 0 0 0 0 0 0 0 0 0 0 0 0 0 0 0 0 0
Wind_Speed_500mb
23 22 20 22 23 23 24 26 27 27 28 28 28 26 25 26 25 23 26 25 24 19 20 19 21 21 21 22 24 25 24 22 22 22 20 21 23 23 25 27 24 26 27
28 23 22 22 25 23 24 26 26 23 22 23 24 22 23 23 19 18 19 20 19 17 22 26 20 19 20 24 28 30 30 28 29 27 22 22 23 22 23 22 22 23 24
18 25 25 24 24 25 26 26 25 22 20 18 19 20 21 21 17 13 11 16 23 15 23 24 21 20 22 25 29 30 29 29 28 33 27 16 17 22 25 19 21 21 21
17 30 28 27 26 26 27 27 25 21 21 20 18 18 18 18 17 10 16 18 21 23 21 19 18 19 21 27 33 33 26 23 19 17 14 5 9 17 19 20 21 21 21
28 21 25 28 29 28 26 25 23 21 17 17 16 16 16 17 12 16 22 25 22 21 18 19 16 16 20 28 35 33 21 19 16 23 16 6 3 15 19 21 20 20 21
26 20 21 27 29 27 24 21 21 22 19 14 17 18 18 15 21 20 21 22 22 19 18 12 11 13 17 23 34 29 17 20 25 20 18 6 5 15 18 20 19 19 14
11 24 24 23 27 28 25 23 24 24 20 13 21 23 21 23 34 24 24 22 18 15 15 12 11 14 15 22 33 29 21 10 16 17 6 5 10 16 17 17 18 18 16
24 23 24 23 22 26 27 29 27 28 22 23 27 29 28 40 40 26 25 20 16 16 14 14 16 18 20 24 27 20 17 8 17 23 8 12 15 18 17 16 16 16 15
24 25 25 28 25 25 24 26 28 33 29 29 30 32 44 41 34 24 24 21 17 17 17 18 20 19 18 21 14 9 11 11 13 18 15 9 11 13 15 15 16 15 14
29 33 33 35 30 27 28 28 35 36 30 23 45 60 45 36 24 24 24 17 18 16 21 23 23 24 22 11 16 14 25 12 21 13 11 6 3 10 12 13 15 14 14
35 32 35 34 30 26 28 30 33 33 36 29 53 54 38 23 22 23 20 17 14 18 24 25 27 24 20 25 8 11 16 9 16 16 10 3 5 9 11 13 14 11 13
35 32 30 32 39 35 33 37 35 39 36 42 56 43 35 24 19 17 13 13 14 22 24 25 26 11 19 25 17 9 24 13 24 21 13 7 6 9 12 13 14 13 15
28 27 29 32 35 42 47 54 46 41 46 51 39 29 21 24 19 11 12 15 17 20 18 14 6 12 11 20 42 33 12 17 16 26 21 12 12 15 16 16 15 17 16
28 28 28 31 34 36 39 39 44 41 33 33 33 26 26 21 17 17 14 20 18 13 16 7 5 19 5 19 28 23 10 17 16 27 24 18 20 21 21 21 19 17 16
33 25 22 22 29 32 33 34 39 35 33 36 30 25 15 11 5 1 8 7 4 4 13 14 18 12 15 22 17 17 21 21 16 19 22 24 22 24 24 24 22 19 20
32 27 25 18 21 20 27 29 32 33 31 27 17 15 10 14 15 13 11 12 14 17 13 8 11 1 20 11 15 12 18 19 9 17 14 22 24 21 23 24 24 23 22
39 32 16 34 23 35 32 33 34 29 25 23 21 16 17 20 18 20 9 6 13 13 13 8 11 4 6 2 7 12 17 24 20 14 7 9 11 16 20 21 20 22 20
48 28 33 36 26 26 27 30 31 26 19 24 14 29 32 26 25 20 12 9 11 9 2 11 14 11 8 26 7 15 18 17 12 15 11 17 3 12 19 19 20 19 18
43 23 33 37 30 38 20 17 32 30 25 22 10 36 30 29 23 16 23 21 13 8 12 9 7 15 14 16 11 14 17 12 19 13 12 24 20 26 19 20 15 18 17
43 38 39 38 24 34 30 24 30 25 26 20 16 16 24 27 10 11 23 18 17 8 4 5 8 13 12 17 7 8 9 9 11 14 13 5 11 9 19 23 14 17 15
44 51 45 46 40 32 35 44 27 30 28 24 20 17 16 26 18 31 4 5 24 14 12 3 6 7 7 15 12 10 10 20 13 32 28 25 7 18 12 20 21 11 13
48 51 45 42 36 25 40 30 29 30 22 25 25 25 21 26 29 30 22 23 24 9 13 11 3 5 12 20 16 21 23 22 30 19 16 7 5 16 21 17 12 13 13
54 50 49 47 44 36 36 32 33 37 32 33 30 25 19 31 26 32 24 22 18 16 14 17 9 13 17 9 17 17 11 16 28 37 21 16 13 10 18 9 23 14 5
57 50 50 45 46 42 41 44 42 38 45 34 31 24 23 28 28 29 29 28 20 12 9 17 8 7 14 20 17 16 20 11 24 27 43 14 11 7 5 6 19 11 14
54 58 50 44 45 41 49 37 41 32 48 34 36 27 18 21 28 22 25 29 19 15 22 14 8 4 2 11 11 10 10 11 14 12 8 12 7 11 9 12 14 11 9
49 58 49 49 47 46 52 48 45 45 41 42 38 42 32 19 27 25 22 27 24 21 12 14 5 14 8 6 2 2 10 22 9 9 6 12 7 3 6 7 23 7 12
Wind_Direction_500mb
155 155 147 139 137 137 126 122 127 117 106 106 108 109 103 104 106 110 107 108 110 112 127 138 129 131 130 128 127 125 121 122 125 128 127 134 137 138 130 123 123 127 126
141 151 152 140 134 135 135 131 128 126 118 111 107 108 108 108 116 121 116 116 112 102 110 116 129 137 127 120 116 119 120 119 123 118 129 141 142 139 138 132 128 132 128
153 159 154 143 135 130 136 137 135 133 129 116 114 113 111 112 116 116 129 142 140 117 113 123 127 121 117 111 113 118 119 115 118 113 86 111 145 144 140 141 146 145 144
141 161 154 148 138 134 127 129 132 137 136 139 134 127 121 115 106 115 137 143 129 121 122 120 117 109 105 108 120 114 112 111 122 117 111 45 124 154 154 146 146 144 144
143 136 153 151 146 138 128 125 126 131 132 138 140 139 131 123 121 110 134 132 126 126 127 120 106 100 101 112 130 120 113 96 98 118 151 186 62 135 138 137 142 148 142
153 170 168 166 164 162 153 144 137 133 132 147 153 151 139 136 147 131 134 134 127 128 126 115 105 89 86 113 133 125 98 73 113 126 141 161 136 141 136 125 130 129 133
119 142 147 163 178 181 177 169 151 140 135 148 166 161 152 149 153 138 138 133 138 139 129 118 99 85 99 115 136 122 99 91 136 143 159 152 155 136 133 131 134 134 142
107 118 135 141 159 176 180 173 166 148 130 135 150 155 152 147 147 145 134 142 153 148 131 108 94 92 93 102 121 120 152 99 133 143 118 120 120 120 128 134 132 131 137
97 100 125 133 130 150 160 171 169 151 138 137 146 153 146 147 144 142 142 145 144 141 117 95 92 87 85 96 95 164 174 118 150 138 129 106 109 112 115 129 123 121 134
102 87 112 122 129 131 139 144 157 149 143 148 143 138 142 142 145 151 144 148 152 132 101 101 90 78 54 61 36 22 56 110 138 130 107 91 88 132 125 113 104 101 111
105 103 97 118 120 129 134 130 150 146 146 142 148 139 139 147 149 158 147 155 150 115 109 100 88 74 73 40 107 346 170 99 141 113 115 109 123 112 115 106 106 111 106
115 112 110 119 113 110 121 126 135 146 153 145 137 139 136 144 149 146 154 150 140 120 119 101 85 132 45 59 65 158 144 129 69 103 86 91 85 114 113 114 118 125 114
125 130 121 126 120 110 103 108 116 137 136 142 134 137 131 125 111 121 126 131 128 126 114 93 61 198 160 71 59 103 105 102 77 62 62 52 96 112 115 110 113 111 112
130 138 125 121 108 120 120 117 123 124 119 154 125 137 123 113 102 94 104 117 98 81 44 67 249 264 320 56 49 74 70 111 118 81 60 75 85 100 108 107 103 99 103
140 131 129 125 123 108 138 138 132 133 113 120 119 113 108 110 95 322 155 156 306 239 94 57 47 17 348 58 47 60 37 62 100 86 56 65 81 98 105 102 96 97 92
155 146 150 159 144 147 149 143 143 140 136 130 123 125 135 134 158 205 205 245 273 264 241 57 22 314 65 96 68 78 59 66 126 87 63 67 73 94 107 106 99 96 93
168 160 162 163 164 148 140 149 143 144 152 155 169 191 174 156 159 158 219 191 264 212 84 98 68 58 90 96 106 94 49 37 96 108 111 96 89 122 126 117 108 100 96
170 176 151 154 185 166 165 125 150 149 167 161 201 194 185 169 186 196 176 216 142 149 227 249 298 32 67 20 115 69 81 47 87 59 24 18 124 134 122 120 120 109 105
171 164 173 156 152 163 173 152 165 157 160 183 133 185 179 174 187 208 164 147 174 252 260 249 338 23 26 51 42 87 90 37 130 99 50 57 88 94 103 127 123 116 116
172 160 185 182 170 182 171 181 162 168 163 189 204 156 163 169 200 236 151 144 181 215 4 57 12 23 10 23 28 63 71 56 57 26 358 285 64 71 104 111 135 125 118
181 164 178 180 185 175 177 181 188 178 175 185 194 186 188 185 180 168 220 212 201 215 130 143 231 325 49 33 50 338 73 44 35 57 63 238 128 120 106 103 114 97 136
185 180 188 196 197 180 170 164 167 185 185 194 202 222 235 224 184 182 189 193 207 233 144 159 209 167 57 18 23 39 59 49 27 39 37 20 33 226 113 82 145 102 120
185 188 191 202 206 196 180 183 191 187 192 198 221 226 230 221 208 196 201 226 229 204 156 160 149 43 93 322 358 24 52 39 43 37 62 342 335 43 185 358 191 144 167
198 197 200 203 208 198 196 193 199 187 191 207 216 226 245 215 198 198 216 223 241 197 174 165 161 38 62 62 32 95 32 92 53 40 29 106 137 186 270 318 148 120 41
202 198 205 212 214 201 198 183 204 201 188 200 202 211 209 205 194 207 215 228 243 201 207 180 137 312 358 63 27 78 58 67 46 200 295 350 316 120 189 272 179 146 131
200 196 207 213 214 206 195 193 200 209 200 200 204 209 209 215 202 195 215 223 228 218 212 207 245 265 269 296 286 340 5 31 26 11 256 32 326 120 62 239 177 155 144
Wind_Speed_850mb
23 22 20 22 23 23 24 26 27 27 28 28 28 26 25 26 25 23 26 25 24 19 20 19 21 21 21 22 24 25 24 22 22 22 20 21 23 23 25 27 24 26 27
28 23 22 22 25 23 24 26 26 23 22 23 24 22 23 23 19 18 19 20 19 17 22 26 20 19 20 24 28 30 30 28 29 27 22 22 23 22 23 22 22 23 24
18 25 25 24 24 25 26 26 25 22 20 18 19 20 21 21 17 13 11 16 23 15 23 24 21 20 22 25 29 30 29 29 28 33 27 16 17 22 25 19 21 21 21
17 30 28 27 26 26 27 27 25 21 21 20 18 18 18 18 17 10 16 18 21 23 21 19 18 19 21 27 33 33 26 23 19 17 14 5 9 17 19 20 21 21 21
28 21 25 28 29 28 26 25 23 21 17 17 16 16 16 17 12 16 22 25 22 21 18 19 16 16 20 28 35 33 21 19 16 23 16 6 3 15 19 21 20 20 21
26 20 21 27 29 27 24 21 21 22 19 14 17 18 18 15 21 20 21 22 22 19 18 12 11 13 17 23 34 29 17 20 25 20 18 6 5 15 18 20 19 19 14
11 24 24 23 27 28 25 23 24 24 20 13 21 23 21 23 34 24 24 22 18 15 15 12 11 14 15 22 33 29 21 10 16 17 6 5 10 16 17 17 18 18 16
24 23 24 23 22 26 27 29 27 28 22 23 27 29 28 40 40 26 25 20 16 16 14 14 16 18 20 24 27 20 17 8 17 23 8 12 15 18 17 16 16 16 15
24 25 25 28 25 25 24 26 28 33 29 29 30 32 44 41 34 24 24 21 17 17 17 18 20 19 18 21 14 9 11 11 13 18 15 9 11 13 15 15 16 15 14
29 33 33 35 30 27 28 28 35 36 30 23 45 60 45 36 24 24 24 17 18 16 21 23 23 24 22 11 16 14 25 12 21 13 11 6 3 10 12 13 15 14 14
35 32 35 34 30 26 28 30 33 33 36 29 53 54 38 23 22 23 20 17 14 18 24 25 27 24 20 25 8 11 16 9 16 16 10 3 5 9 11 13 14 11 13
35 32 30 32 39 35 33 37 35 39 36 42 56 43 35 24 19 17 13 13 14 22 24 25 26 11 19 25 17 9 24 13 24 21 13 7 6 9 12 13 14 13 15
28 27 29 32 35 42 47 54 46 41 46 51 39 29 21 24 19 11 12 15 17 20 18 14 6 12 11 20 42 33 12 17 16 26 21 12 12 15 16 16 15 17 16
28 28 28 31 34 36 39 39 44 41 33 33 33 26 26 21 17 17 14 20 18 13 16 7 5 19 5 19 28 23 10 17 16 27 24 18 20 21 21 21 19 17 16
33 25 22 22 29 32 33 34 39 35 33 36 30 25 15 11 5 1 8 7 4 4 13 14 18 12 15 22 17 17 21 21 16 19 22 24 22 24 24 24 22 19 20
32 27 25 18 21 20 27 29 32 33 31 27 17 15 10 14 15 13 11 12 14 17 13 8 11 1 20 11 15 12 18 19 9 17 14 22 24 21 23 24 24 23 22
39 32 16 34 23 35 32 33 34 29 25 23 21 16 17 20 18 20 9 6 13 13 13 8 11 4 6 2 7 12 17 24 20 14 7 9 11 16 20 21 20 22 20
48 28 33 36 26 26 27 30 31 26 19 24 14 29 32 26 25 20 12 9 11 9 2 11 14 11 8 26 7 15 18 17 12 15 11 17 3 12 19 19 20 19 18
43 23 33 37 30 38 20 17 32 30 25 22 10 36 30 29 23 16 23 21 13 8 12 9 7 15 14 16 11 14 17 12 19 13 12 24 20 26 19 20 15 18 17
43 38 39 38 24 34 30 24 30 25 26 20 16 16 24 27 10 11 23 18 17 8 4 5 8 13 12 17 7 8 9 9 11 14 13 5 11 9 19 23 14 17 15
44 51 45 46 40 32 35 44 27 30 28 24 20 17 16 26 18 31 4 5 24 14 12 3 6 7 7 15 12 10 10 20 13 32 28 25 7 18 12 20 21 11 13
48 51 45 42 36 25 40 30 29 30 22 25 25 25 21 26 29 30 22 23 24 9 13 11 3 5 12 20 16 21 23 22 30 19 16 7 5 16 21 17 12 13 13
54 50 49 47 44 36 36 32 33 37 32 33 30 25 19 31 26 32 24 22 18 16 14 17 9 13 17 9 17 17 11 16 28 37 21 16 13 10 18 9 23 14 5
57 50 50 45 46 42 41 44 42 38 45 34 31 24 23 28 28 29 29 28 20 12 9 17 8 7 14 20 17 16 20 11 24 27 43 14 11 7 5 6 19 11 14
54 58 50 44 45 41 49 37 41 32 48 34 36 27 18 21 28 22 25 29 19 15 22 14 8 4 2 11 11 10 10 11 14 12 8 12 7 11 9 12 14 11 9
49 58 49 49 47 46 52 48 45 45 41 42 38 42 32 19 27 25 22 27 24 21 12 14 5 14 8 6 2 2 10 22 9 9 6 12 7 3 6 7 23 7 12
Wind_Direction_850mb
155 155 147 139 137 137 126 122 127 117 106 106 108 109 103 104 106 110 107 108 110 112 127 138 129 131 130 128 127 125 121 122 125 128 127 134 137 138 130 123 123 127 126
141 151 152 140 134 135 135 131 128 126 118 111 107 108 108 108 116 121 116 116 112 102 110 116 129 137 127 120 116 119 120 119 123 118 129 141 142 139 138 132 128 132 128
153 159 154 143 135 130 136 137 135 133 129 116 114 113 111 112 116 116 129 142 140 117 113 123 127 121 117 111 113 118 119 115 118 113 86 111 145 144 140 141 146 145 144
141 161 154 148 138 134 127 129 132 137 136 139 134 127 121 115 106 115 137 143 129 121 122 120 117 109 105 108 120 114 112 111 122 117 111 45 124 154 154 146 146 144 144
143 136 153 151 146 138 128 125 126 131 132 138 140 139 131 123 121 110 134 132 126 126 127 120 106 100 101 112 130 120 113 96 98 118 151 186 62 135 138 137 142 148 142
153 170 168 166 164 162 153 144 137 133 132 147 153 151 139 136 147 131 134 134 127 128 126 115 105 89 86 113 133 125 98 73 113 126 141 161 136 141 136 125 130 129 133
119 142 147 163 178 181 177 169 151 140 135 148 166 161 152 149 153 138 138 133 138 139 129 118 99 85 99 115 136 122 99 91 136 143 159 152 155 136 133 131 134 134 142
107 118 135 141 159 176 180 173 166 148 130 135 150 155 152 147 147 145 134 142 153 148 131 108 94 92 93 102 121 120 152 99 133 143 118 120 120 120 128 134 132 131 137
97 100 125 133 130 150 160 171 169 151 138 137 146 153 146 147 144 142 142 145 144 141 117 95 92 87 85 96 95 164 174 118 150 138 129 106 109 112 115 129 123 121 134
102 87 112 122 129 131 139 144 157 149 143 148 143 138 142 142 145 151 144 148 152 132 101 101 90 78 54 61 36 22 56 110 138 130 107 91 88 132 125 113 104 101 111
105 103 97 118 120 129 134 130 150 146 146 142 148 139 139 147 149 158 147 155 150 115 109 100 88 74 73 40 107 346 170 99 141 113 115 109 123 112 115 106 106 111 106
115 112 110 119 113 110 121 126 135 146 153 145 137 139 136 144 149 146 154 150 140 120 119 101 85 132 45 59 65 158 144 129 69 103 86 91 85 114 113 114 118 125 114
125 130 121 126 120 110 103 108 116 137 136 142 134 137 131 125 111 121 126 131 128 126 114 93 61 198 160 71 59 103 105 102 77 62 62 52 96 112 115 110 113 111 112
130 138 125 121 108 120 120 117 123 124 119 154 125 137 123 113 102 94 104 117 98 81 44 67 249 264 320 56 49 74 70 111 118 81 60 75 85 100 108 107 103 99 103
140 131 129 125 123 108 138 138 132 133 113 120 119 113 108 110 95 322 155 156 306 239 94 57 47 17 348 58 47 60 37 62 100 86 56 65 81 98 105 102 96 97 92
155 146 150 159 144 147 149 143 143 140 136 130 123 125 135 134 158 205 205 245 273 264 241 57 22 314 65 96 68 78 59 66 126 87 63 67 73 94 107 106 99 96 93
168 160 162 163 164 148 140 149 143 144 152 155 169 191 174 156 159 158 219 191 264 212 84 98 68 58 90 96 106 94 49 37 96 108 111 96 89 122 126 117 108 100 96
170 176 151 154 185 166 165 125 150 149 167 161 201 194 185 169 186 196 176 216 142 149 227 249 298 32 67 20 115 69 81 47 87 59 24 18 124 134 122 120 120 109 105
171 164 173 156 152 163 173 152 165 157 160 183 133 185 179 174 187 208 164 147 174 252 260 249 338 23 26 51 42 87 90 37 130 99 50 57 88 94 103 127 123 116 116
172 160 185 182 170 182 171 181 162 168 163 189 204 156 163 169 200 236 151 144 181 215 4 57 12 23 10 23 28 63 71 56 57 26 358 285 64 71 104 111 135 125 118
181 164 178 180 185 175 177 181 188 178 175 185 194 186 188 185 180 168 220 212 201 215 130 143 231 325 49 33 50 338 73 44 35 57 63 238 128 120 106 103 114 97 136
185 180 188 196 197 180 170 164 167 185 185 194 202 222 235 224 184 182 189 193 207 233 144 159 209 167 57 18 23 39 59 49 27 39 37 20 33 226 113 82 145 102 120
185 188 191 202 206 196 180 183 191 187 192 198 221 226 230 221 208 196 201 226 229 204 156 160 149 43 93 322 358 24 52 39 43 37 62 342 335 43 185 358 191 144 167
198 197 200 203 208 198 196 193 199 187 191 207 216 226 245 215 198 198 216 223 241 197 174 165 161 38 62 62 32 95 32 92 53 40 29 106 137 186 270 318 148 120 41
202 198 205 212 214 201 198 183 204 201 188 200 202 211 209 205 194 207 215 228 243 201 207 180 137 312 358 63 27 78 58 67 46 200 295 350 316 120 189 272 179 146 131
200 196 207 213 214 206 195 193 200 209 200 200 204 209 209 215 202 195 215 223 228 218 212 207 245 265 269 296 286 340 5 31 26 11 256 32 326 120 62 239 177 155 144